Location: Courçay
(47.2523°N, 0.8761°E)
Time: 00:57:52
(UTC+00:00)

MOS 1 Rocket - Pass Details

Date: 18 November 2025
Orbit: 610 x 813 km, 97.4° (Epoch: 05 December)

Event Time Altitude Azimuth Distance (km) Brightness Sun altitude
Rises 17:38:36 0° 159° (SSE) 2,875 6.4 -13.6°
Reaches altitude 10° 17:40:44 10° 157° (SSE) 1,987 5.6 -14.0°
Maximum altitude 17:45:02 70° 74° (ENE) 681 3.0 -14.7°
Drops below altitude 10° 17:49:33 10° 351° (N) 2,092 5.7 -15.4°
Sets 17:51:51 0° 350° (N) 3,040 6.6 -15.8°
